Home > Products > State Listing > Utah Data
Latest:
 RWRUT |  RWRAZ |
  [top]

000
ASUS45 KPSR 292010
RWRAZ

ARIZONA HOURLY REGIONAL WEATHER ROUNDUP
NATIONAL WEATHER SERVICE PHOENIX AZ
100 PM MST SUN MAY 29 2016

NOTE: FAIR INDICATES FEW OR NO CLOUDS BELOW 12,000 FEET WITH NO
SIGNIFICANT WEATHER AND/OR OBSTRUCTIONS TO VISIBILITY.

AZZ001>003-036-292100-
NORTHWEST ARIZONA

CITY           SKY/WX    TMP DP  RH WIND       PRES   REMARKS
BULLHEAD CITY  SUNNY     91  28  10 MISG      29.88F
KINGMAN        SUNNY     83  26  12 SW15G25   30.01F
$$

AZZ004>008-015-016-018-292100-
NORTH CENTRAL ARIZONA

CITY           SKY/WX    TMP DP  RH WIND       PRES   REMARKS
GRAND CANYON   SUNNY     77  18  11 S8        30.16F
WILLIAMS       SUNNY     70  18  13 S16       30.26F
PRESCOTT       SUNNY     77  14   9 SE12G23   30.10F
FLAGSTAFF      SUNNY     68  23  18 SW16G23   30.21F
PAYSON         SUNNY     79  19  11 S13G20    30.13F
PAGE           SUNNY     84  28  13 N6        30.01F
$$

AZZ009>014-017-292100-
NORTHEAST ARIZONA

CITY           SKY/WX    TMP DP  RH WIND       PRES   REMARKS
WINSLOW        SUNNY     84  14   7 SE10G18   30.07F
SAINT JOHNS    SUNNY     81  10   7 W7        30.11F
WINDOW ROCK    SUNNY     73  15  11 SW6       30.18F
SHOW LOW       SUNNY     73  10   9 S15G26    30.19F
$$

AZZ023-292100-
GREATER PHOENIX AREA

CITY           SKY/WX    TMP DP  RH WIND       PRES   REMARKS
PHOENIX        SUNNY     92  30  11 MISG      29.87F
BUCKEYE        SUNNY     90  28  11 S6        29.90F
GLENDALE       SUNNY     91  27   9 E8        29.90F
LUKE AFB       MOSUNNY   92  25   8 VRB7G23   29.87F
DEER VALLEY    SUNNY     89  30  12 S9G24     29.90F
SCOTTSDALE     SUNNY     91  23   8 S9        29.91F
MESA-FALCON    SUNNY    N/A N/A N/A S6        29.88F
MESA-GATEWAY   MOSUNNY   93  21   7 S13G18    29.90F
CHANDLER       SUNNY     90  21   8 S8        29.89F
$$

AZZ027-028-292100-
SOUTHWEST MARICOPA COUNTY AND PINAL COUNTY

CITY           SKY/WX    TMP DP  RH WIND       PRES   REMARKS
CASA GRANDE    SUNNY     91  30  11 SE9G18    29.91F
GILA BEND      FAIR      93  16   6 W12G18    29.86F
$$

AZZ503-504-507>509-292100-
SOUTHEAST ARIZONA

CITY           SKY/WX    TMP DP  RH WIND       PRES   REMARKS
TUCSON         SUNNY     91  16   6 S12       29.98F
DAVIS-MONTHAN  MOSUNNY   91  16   6 SW8G17    29.96F
RYAN FIELD     SUNNY     93  14   5 SW16G29   29.96F
NOGALES        SUNNY     88  17   7 S9G25     30.05F
SIERRA VISTA   SUNNY     85  14   7 S10G18    30.10F
DOUGLAS        MOSUNNY   86  31  13 MISG      30.06F
SAFFORD        SUNNY     90  17   7 SE6G21    29.97F
$$

AZZ020-021-025-026-031-292100-
SOUTHWEST ARIZONA

CITY           SKY/WX    TMP DP  RH WIND       PRES   REMARKS
YUMA           SUNNY     88  34  14 S12       29.87F
$$

CAZ031-033-041-043-047-048-061-292100-
SOUTHERN CALIFORNIA

CITY           SKY/WX    TMP DP  RH WIND       PRES   REMARKS
DOWNTOWN L.A.  CLOUDY    68  53  58 CALM      30.00F
L.A. AIRPORT   MOSUNNY   67  53  61 W10       30.01F
SAN DIEGO      CLOUDY    66  54  63 NW9       30.03F
BURBANK        CLOUDY    65  53  65 E6        30.01F
ONTARIO        CLOUDY    66  52  60 W6        30.00F
RIVERSIDE      CLOUDY    67  52  58 CALM      30.01S
PALM SPRINGS   MOSUNNY   86  49  27 VRB3      29.90F
EL CENTRO NAS  SUNNY     85  51  31 S6        29.88F
IMPERIAL       SUNNY     87  53  31 VRB5      29.85F
BLYTHE         SUNNY     89  36  15 S8        29.88F
NEEDLES        SUNNY     92  23   8 SW14G28   29.89F
$$

NVZ020-UTZ003-292100-
SOUTHERN NEVADA-UTAH

CITY           SKY/WX    TMP DP  RH WIND       PRES   REMARKS
LAS VEGAS      MOSUNNY   90  27  10 VRB5      29.88F
SALT LAKE CITY PTSUNNY   78  40  25 N9        30.03F
$$

NMZ009-TXZ055-292100-
NEW MEXICO-WEST TEXAS

CITY           SKY/WX    TMP DP  RH WIND       PRES   REMARKS
ALBUQUERQUE    MOSUNNY   83  14   7 S22G30    30.12F
EL PASO        MOSUNNY   91  18   7 VRB6      30.06F
$$


........................KEY........................
SKY/WX - SKY CONDITION/WEATHER
TMP    - TEMPERATURE IN FAHRENHEIT
DP     - DEW POINT IN FAHRENHEIT
RH     - RELATIVE HUMIDITY IN PERCENT
WIND   - DIRECTION AND SPEED IN MILES PER HOUR (MPH)
VRB    - VARIABLE WIND DIRECTION
PRES   - MEAN SEA LEVEL PRESSURE IN INCHES OF MERCURY
         F - FALLING PRESSURE   R - RISING PRESSURE
         S - STEADY PRESSURE
VSB    - VISIBILITY IN MILES
HX     - HEAT INDEX IN FAHRENHEIT
WCI    - WIND CHILL INDEX IN FAHRENHEIT
TC     - TEMPERATURE IN CELSIUS WHICH IS ALSO KNOWN AS
         TEMPERATURE IN CENTIGRADE
AFB    - AIR FORCE BASE
         LUKE AFB IS LUKE AIR FORCE BASE
         DAVIS-MONTHAN IS DAVIS-MONTHAN AIR FORCE BASE
NAS    - NAVAL AIR STATION
         EL CENTRO NAS IS EL CENTRO NAVAL AIR STATION
N/A    - NOT AVAILABLE






000
ASUS45 KPSR 291910
RWRAZ

ARIZONA HOURLY REGIONAL WEATHER ROUNDUP
NATIONAL WEATHER SERVICE PHOENIX AZ
1200 PM MST SUN MAY 29 2016

NOTE: FAIR INDICATES FEW OR NO CLOUDS BELOW 12,000 FEET WITH NO
SIGNIFICANT WEATHER AND/OR OBSTRUCTIONS TO VISIBILITY.

AZZ001>003-036-292000-
NORTHWEST ARIZONA

CITY           SKY/WX    TMP DP  RH WIND       PRES   REMARKS
BULLHEAD CITY  SUNNY     90  30  12 MISG      29.90F
KINGMAN        SUNNY     81  29  15 SW12      30.02F
$$

AZZ004>008-015-016-018-292000-
NORTH CENTRAL ARIZONA

CITY           SKY/WX    TMP DP  RH WIND       PRES   REMARKS
GRAND CANYON   SUNNY     73  13  10 SE10G23   30.18F
WILLIAMS       SUNNY     70  12  11 S10G20    30.27S
PRESCOTT       SUNNY     76  14   9 S17G31    30.11F
FLAGSTAFF      SUNNY     68  22  17 S10G21    30.22F
PAYSON         SUNNY     77  18  10 S12G20    30.15F
PAGE           SUNNY     81  31  16 N9        30.04F
$$

AZZ009>014-017-292000-
NORTHEAST ARIZONA

CITY           SKY/WX    TMP DP  RH WIND       PRES   REMARKS
WINSLOW        SUNNY     82  10   6 S7G20     30.09F
SAINT JOHNS    SUNNY     79  11   7 VRB6G18   30.13F
WINDOW ROCK    SUNNY     77  19  11 VRB6      30.19F
SHOW LOW       SUNNY     72  12  10 SW5G18    30.21F
$$

AZZ023-292000-
GREATER PHOENIX AREA

CITY           SKY/WX    TMP DP  RH WIND       PRES   REMARKS
PHOENIX        SUNNY     91  33  12 S12       29.90F
BUCKEYE        SUNNY     90  32  12 SW13      29.91F
GLENDALE       SUNNY     91  30  11 SE9       29.92F
LUKE AFB       SUNNY     91  28  10 SE14G22   29.89F
DEER VALLEY    SUNNY     89  33  13 S10       29.92F
SCOTTSDALE     SUNNY     88  32  13 S7        29.93F
MESA-FALCON    SUNNY    N/A N/A N/A SE6       29.90F
MESA-GATEWAY   MOSUNNY   90  34  13 VRB5      29.92F
CHANDLER       SUNNY     90  34  13 S7        29.91F
$$

AZZ027-028-292000-
SOUTHWEST MARICOPA COUNTY AND PINAL COUNTY

CITY           SKY/WX    TMP DP  RH WIND       PRES   REMARKS
CASA GRANDE    SUNNY     90  34  13 SE9G16    29.94F
GILA BEND      FAIR      92  11   5 SE13      29.88F
$$

AZZ503-504-507>509-292000-
SOUTHEAST ARIZONA

CITY           SKY/WX    TMP DP  RH WIND       PRES   REMARKS
TUCSON         SUNNY     89  21   8 E7        29.99F
DAVIS-MONTHAN  MOSUNNY   88  20   8 VRB3      29.98F
RYAN FIELD     SUNNY     90  23   9 S9G17     29.97F
NOGALES        SUNNY     86  15   7 SW16G25   30.06F
SIERRA VISTA   SUNNY     83  13   7 S15       30.11F
DOUGLAS        SUNNY     85  29  13 SE6G24    30.08F
SAFFORD        SUNNY     88  16   7 VRB3      30.01F
$$

AZZ020-021-025-026-031-292000-
SOUTHWEST ARIZONA

CITY           SKY/WX    TMP DP  RH WIND       PRES   REMARKS
YUMA           SUNNY     86  41  20 S12G18    29.89F
$$

CAZ031-033-041-043-047-048-061-292000-
SOUTHERN CALIFORNIA

CITY           SKY/WX    TMP DP  RH WIND       PRES   REMARKS
DOWNTOWN L.A.  CLOUDY    66  53  63 CALM      30.01S
L.A. AIRPORT   MOSUNNY   66  53  63 W10       30.02S
SAN DIEGO      CLOUDY    64  54  69 NW8       30.04S
BURBANK        CLOUDY    63  53  70 E6        30.02R
ONTARIO        CLOUDY    64  53  67 W6        30.01F
RIVERSIDE      CLOUDY    66  52  60 VRB5      30.01F
PALM SPRINGS   SUNNY     83  48  29 CALM      29.92F
EL CENTRO NAS  SUNNY     83  53  35 VRB7      29.89F
IMPERIAL       SUNNY     85  55  35 SE6       29.87F
BLYTHE         SUNNY     87  38  17 S7        29.89F
NEEDLES        SUNNY     92  25   9 S23G29    29.90F
$$

NVZ020-UTZ003-292000-
SOUTHERN NEVADA-UTAH

CITY           SKY/WX    TMP DP  RH WIND       PRES   REMARKS
LAS VEGAS      MOSUNNY   89  27  10 N5        29.90F
SALT LAKE CITY PTSUNNY   79  40  24 N8        30.05F
$$

NMZ009-TXZ055-292000-
NEW MEXICO-WEST TEXAS

CITY           SKY/WX    TMP DP  RH WIND       PRES   REMARKS
ALBUQUERQUE    MOSUNNY   80  12   7 SW13      30.15F
EL PASO        MOSUNNY   90  18   7 VRB6      30.08F
$$


........................KEY........................
SKY/WX - SKY CONDITION/WEATHER
TMP    - TEMPERATURE IN FAHRENHEIT
DP     - DEW POINT IN FAHRENHEIT
RH     - RELATIVE HUMIDITY IN PERCENT
WIND   - DIRECTION AND SPEED IN MILES PER HOUR (MPH)
VRB    - VARIABLE WIND DIRECTION
PRES   - MEAN SEA LEVEL PRESSURE IN INCHES OF MERCURY
         F - FALLING PRESSURE   R - RISING PRESSURE
         S - STEADY PRESSURE
VSB    - VISIBILITY IN MILES
HX     - HEAT INDEX IN FAHRENHEIT
WCI    - WIND CHILL INDEX IN FAHRENHEIT
TC     - TEMPERATURE IN CELSIUS WHICH IS ALSO KNOWN AS
         TEMPERATURE IN CENTIGRADE
AFB    - AIR FORCE BASE
         LUKE AFB IS LUKE AIR FORCE BASE
         DAVIS-MONTHAN IS DAVIS-MONTHAN AIR FORCE BASE
NAS    - NAVAL AIR STATION
         EL CENTRO NAS IS EL CENTRO NAVAL AIR STATION
N/A    - NOT AVAILABLE





  [top]

000
ASUS45 KSLC 291910
RWRUT

UTAH REGIONAL WEATHER ROUNDUP
NATIONAL WEATHER SERVICE SALT LAKE CITY UT
100 PM MDT SUN MAY 29 2016

UTZ001>011-023>025-292000-

NORTHERN UTAH

CITY           SKY/WX    TMP DP  RH WIND       PRES   REMARKS
BRIGHAM CITY     N/A     73  37  26 CALM      30.09F
HILL AFB       SUNNY     73  40  30 VRB6      30.10F
LOGAN          MOSUNNY   65  47  52 VRB3      30.10F
OGDEN          SUNNY     74  40  29 NW5       30.08F
PROVO AIRPORT  MOSUNNY   72  45  37 VRB6      30.08F
SALT LAKE CITY PTSUNNY   79  40  24 N8        30.05F
VERNAL         SUNNY     71  41  33 E6        30.13F
WENDOVER       SUNNY     73  37  27 SE7       30.07F
HEBER CITY     MOSUNNY   73  34  23 SW18      30.10F
WEST JORDAN    MOSUNNY   75  41  29 S12       30.08F

$$

UTZ012>022-026-027-292000-

SOUTHERN/CENTRAL UTAH

CITY           SKY/WX    TMP DP  RH WIND       PRES   REMARKS
BLANDING       SUNNY     76  27  16 SE12      30.21F
BRYCE CANYON   MOSUNNY   67  25  20 S8G25     30.23F
CEDAR CITY     SUNNY     75  33  21 VRB5      30.08F
DELTA          SUNNY     77  32  19 SW8       30.07F
HANKSVILLE     SUNNY     81  32  17 E9        30.07F
MILFORD        SUNNY     81  32  17 VRB7      30.05F
MOAB/CYNLANDS  SUNNY     78  34  20 VRB5      30.05F
PRICE          MOSUNNY   75  31  19 NW25G38   30.17S
ST GEORGE      PTCLDY    84  36  17 W3        29.97F

$$

REGIONAL REPORTS     COLORADO/ARIZONA

CITY           SKY/WX    TMP DP  RH WIND       PRES   REMARKS
CRAIG, CO      CLOUDY    70  36  28 VRB6      30.18F
GRAND JUNCTION CLOUDY    73  35  25 SW9       30.12F
RIFLE          CLOUDY    76  31  19 VRB6      30.12F
MONTROSE       CLOUDY    72  28  19 S18G26    30.18R
CORTEZ         SUNNY     75  25  15 SW9       30.14F
PAGE, AZ       SUNNY     81  31  16 N9        30.04F
GRAND CANYON   SUNNY     73  13  10 SE10G23   30.18F
KINGMAN        SUNNY     81  29  15 SW12      30.02F
FLAGSTAFF      SUNNY     68  22  17 S10G21    30.22F

$$

REGIONAL REPORTS    NEVADA/IDAHO/WYOMING

CITY           SKY/WX    TMP DP  RH WIND       PRES   REMARKS
LAS VEGAS, NV  MOSUNNY   89  27  10 N5        29.90F
ELY            PTSUNNY   65  32  29 S16G23    30.16R
ELKO           SUNNY     71  38  29 SW9       30.09F
POCATELLO, ID  MOSUNNY   73  42  32 NW8       30.09F
BURLEY         MOSUNNY   72  41  32 VRB3      30.06F
EVANSTON, WY   CLOUDY    65  34  31 W12       30.20F
ROCK SPRINGS   SUNNY     63  29  27 SW3       30.21F
KEMMERER         N/A     63  32  31 SW7       30.23F

$$





000
ASUS45 KPSR 291710
RWRAZ

ARIZONA HOURLY REGIONAL WEATHER ROUNDUP
NATIONAL WEATHER SERVICE PHOENIX AZ
1000 AM MST SUN MAY 29 2016

NOTE: FAIR INDICATES FEW OR NO CLOUDS BELOW 12,000 FEET WITH NO
SIGNIFICANT WEATHER AND/OR OBSTRUCTIONS TO VISIBILITY.

AZZ001>003-036-291800-
NORTHWEST ARIZONA

CITY           SKY/WX    TMP DP  RH WIND       PRES   REMARKS
BULLHEAD CITY  SUNNY     86  34  15 SW13      29.93R
KINGMAN        SUNNY     78  30  17 SW14      30.03S
$$

AZZ004>008-015-016-018-291800-
NORTH CENTRAL ARIZONA

CITY           SKY/WX    TMP DP  RH WIND       PRES   REMARKS
GRAND CANYON   SUNNY     70  20  15 SW6       30.20F
PRESCOTT       SUNNY     72  23  16 SE15G25   30.13S
FLAGSTAFF      SUNNY     65  17  15 S9G17     30.23S
PAYSON         SUNNY     73  25  16 VRB7G16   30.17F
$$

AZZ009>014-017-291800-
NORTHEAST ARIZONA

CITY           SKY/WX    TMP DP  RH WIND       PRES   REMARKS
WINSLOW        SUNNY     77  22  13 E5        30.13F
SAINT JOHNS    SUNNY     74  13   9 VRB3      30.16F
WINDOW ROCK    SUNNY     72  21  14 SW7       30.22F
SHOW LOW       SUNNY     68  16  13 SW12G17   30.23S
$$

AZZ023-291800-
GREATER PHOENIX AREA

CITY           SKY/WX    TMP DP  RH WIND       PRES   REMARKS
PHOENIX        SUNNY     85  35  16 VRB5      29.93F
BUCKEYE        SUNNY     82  32  16 E7        29.95F
GLENDALE       SUNNY     84  36  17 CALM      29.95F
LUKE AFB       SUNNY     84  38  19 E7        29.93F
DEER VALLEY    SUNNY     82  34  17 VRB3      29.95F
SCOTTSDALE     SUNNY     83  34  17 VRB3      29.96F
MESA-FALCON    SUNNY    N/A N/A N/A S10       29.93F
MESA-GATEWAY   SUNNY     82  36  18 CALM      29.96F
CHANDLER       SUNNY     84  39  20 S6        29.95F
$$

AZZ027-028-291800-
SOUTHWEST MARICOPA COUNTY AND PINAL COUNTY

CITY           SKY/WX    TMP DP  RH WIND       PRES   REMARKS
CASA GRANDE    SUNNY     82  36  18 E6        29.97S
GILA BEND      FAIR      87  21   9 VRB7G16   29.91F
$$

AZZ503-504-507>509-291800-
SOUTHEAST ARIZONA

CITY           SKY/WX    TMP DP  RH WIND       PRES   REMARKS
TUCSON         SUNNY     83  24  11 CALM      30.03F
DAVIS-MONTHAN  SUNNY     83  24  11 SW7       30.01F
RYAN FIELD     SUNNY     82  28  14 CALM      30.01F
NOGALES        SUNNY     82  18   9 S12G17    30.08F
SIERRA VISTA   SUNNY     79  16   9 SE20      30.12F
DOUGLAS        SUNNY     81  21  11 SE16G24   30.12F
SAFFORD        SUNNY     83  17   8 E9        30.04F
$$

AZZ020-021-025-026-031-291800-
SOUTHWEST ARIZONA

CITY           SKY/WX    TMP DP  RH WIND       PRES   REMARKS
YUMA           SUNNY     81  46  29 S13       29.91S
$$

CAZ031-033-041-043-047-048-061-291800-
SOUTHERN CALIFORNIA

CITY           SKY/WX    TMP DP  RH WIND       PRES   REMARKS
DOWNTOWN L.A.  CLOUDY    64  54  69 CALM      30.02R
L.A. AIRPORT   PTSUNNY   65  53  65 SW7       30.02S
SAN DIEGO      PTSUNNY   63  55  77 NW7       30.04R
BURBANK        CLOUDY    60  54  80 SE3       30.02R HAZE
ONTARIO        CLOUDY    60  54  80 W5        30.02S
RIVERSIDE      CLOUDY    62  54  74 VRB3      30.02S
PALM SPRINGS   SUNNY     79  48  33 E5        29.93S
EL CENTRO NAS  SUNNY     78  52  40 VRB6      29.90F
IMPERIAL       SUNNY     80  55  42 E9        29.88F
BLYTHE         SUNNY     83  39  21 S7        29.91S
NEEDLES        SUNNY     87  28  12 S8        29.93R
$$

NVZ020-UTZ003-291800-
SOUTHERN NEVADA-UTAH

CITY           SKY/WX    TMP DP  RH WIND       PRES   REMARKS
LAS VEGAS      MOSUNNY   83  27  13 E6        29.92S
SALT LAKE CITY MOSUNNY   72  41  32 VRB3      30.09F
$$

NMZ009-TXZ055-291800-
NEW MEXICO-WEST TEXAS

CITY           SKY/WX    TMP DP  RH WIND       PRES   REMARKS
ALBUQUERQUE    MOSUNNY   76  12   8 S14G20    30.18F
EL PASO        MOSUNNY   88  12   6 N3        30.11S
$$


........................KEY........................
SKY/WX - SKY CONDITION/WEATHER
TMP    - TEMPERATURE IN FAHRENHEIT
DP     - DEW POINT IN FAHRENHEIT
RH     - RELATIVE HUMIDITY IN PERCENT
WIND   - DIRECTION AND SPEED IN MILES PER HOUR (MPH)
VRB    - VARIABLE WIND DIRECTION
PRES   - MEAN SEA LEVEL PRESSURE IN INCHES OF MERCURY
         F - FALLING PRESSURE   R - RISING PRESSURE
         S - STEADY PRESSURE
VSB    - VISIBILITY IN MILES
HX     - HEAT INDEX IN FAHRENHEIT
WCI    - WIND CHILL INDEX IN FAHRENHEIT
TC     - TEMPERATURE IN CELSIUS WHICH IS ALSO KNOWN AS
         TEMPERATURE IN CENTIGRADE
AFB    - AIR FORCE BASE
         LUKE AFB IS LUKE AIR FORCE BASE
         DAVIS-MONTHAN IS DAVIS-MONTHAN AIR FORCE BASE
NAS    - NAVAL AIR STATION
         EL CENTRO NAS IS EL CENTRO NAVAL AIR STATION
N/A    - NOT AVAILABLE






000
ASUS45 KSLC 291710
RWRUT

UTAH REGIONAL WEATHER ROUNDUP
NATIONAL WEATHER SERVICE SALT LAKE CITY UT
1100 AM MDT SUN MAY 29 2016

UTZ001>011-023>025-291800-

NORTHERN UTAH

CITY           SKY/WX    TMP DP  RH WIND       PRES   REMARKS
BRIGHAM CITY     N/A     66  37  34 CALM      30.11F
HILL AFB       SUNNY     67  42  40 SE5       30.12S
LOGAN          MOSUNNY   58  42  55 N3        30.13F
OGDEN          SUNNY     70  39  32 CALM      30.10F
PROVO AIRPORT  MOSUNNY   66  43  42 SW7       30.12F
SALT LAKE CITY MOSUNNY   72  41  32 VRB3      30.09F
VERNAL         SUNNY     66  42  41 VRB5      30.18F
WENDOVER       SUNNY     66  39  37 SE6       30.10S
HEBER CITY     SUNNY     63  41  45 CALM      30.14F
WEST JORDAN    SUNNY     70  43  37 SE7       30.11F

$$

UTZ012>022-026-027-291800-

SOUTHERN/CENTRAL UTAH

CITY           SKY/WX    TMP DP  RH WIND       PRES   REMARKS
BLANDING       SUNNY     72  29  19 S12       30.25R
BRYCE CANYON   SUNNY     64  27  24 SE13G23   30.25F
CEDAR CITY     SUNNY     69  35  28 CALM      30.12F
DELTA          MOSUNNY   70  37  30 CALM      30.11F
HANKSVILLE     SUNNY     73  34  23 N6        30.12F
MILFORD        SUNNY     72  37  28 CALM      30.10F
MOAB/CYNLANDS  MOSUNNY   73  35  25 E7        30.10F
PRICE          MOSUNNY   69  34  27 SE8       30.18F
ST GEORGE      SUNNY     77  32  19 CALM      30.01F

$$

REGIONAL REPORTS     COLORADO/ARIZONA

CITY           SKY/WX    TMP DP  RH WIND       PRES   REMARKS
CRAIG, CO      SUNNY     65  35  33 CALM      30.21F
GRAND JUNCTION SUNNY     71  35  26 CALM      30.14F
RIFLE          SUNNY     67  37  33 VRB3      30.19F
MONTROSE       SUNNY     67  34  29 NW6       30.19F
CORTEZ         SUNNY     77  30  17 S12       30.16F
PAGE, AZ       NOT AVBL
GRAND CANYON   SUNNY     70  20  15 SW6       30.20F
KINGMAN        SUNNY     78  30  17 SW14      30.03S
FLAGSTAFF      SUNNY     65  17  15 S9G17     30.23S

$$

REGIONAL REPORTS    NEVADA/IDAHO/WYOMING

CITY           SKY/WX    TMP DP  RH WIND       PRES   REMARKS
LAS VEGAS, NV  MOSUNNY   83  27  13 E6        29.92S
ELY            CLOUDY    64  38  38 SE3       30.16F
ELKO           MOSUNNY   66  43  43 CALM      30.12F
POCATELLO, ID  MOSUNNY   65  39  38 N6        30.12F
BURLEY         SUNNY     65  43  44 MISG      30.09F
EVANSTON, WY   SUNNY     62  36  37 VRB6      30.23S
ROCK SPRINGS   SUNNY     59  32  36 SW7       30.24S
KEMMERER         N/A     59  30  33 SE5       30.26S

$$





000
ASUS45 KPSR 291210
RWRAZ

ARIZONA HOURLY REGIONAL WEATHER ROUNDUP
NATIONAL WEATHER SERVICE PHOENIX AZ
500 AM MST SUN MAY 29 2016

NOTE: FAIR INDICATES FEW OR NO CLOUDS BELOW 12,000 FEET WITH NO
SIGNIFICANT WEATHER AND/OR OBSTRUCTIONS TO VISIBILITY.

AZZ001>003-036-291300-
NORTHWEST ARIZONA

CITY           SKY/WX    TMP DP  RH WIND       PRES   REMARKS
KINGMAN        CLEAR     58  28  32 MISG      29.98R
6HR MIN TEMP:  57; 6HR MAX TEMP:  71;

$$

AZZ004>008-015-016-018-291300-
NORTH CENTRAL ARIZONA

CITY           SKY/WX    TMP DP  RH WIND       PRES   REMARKS
GRAND CANYON   CLEAR     31  22  69 CALM      30.16S
6HR MIN TEMP:  30; 6HR MAX TEMP:  44;

WILLIAMS       CLEAR     37  21  52 S9        30.23S WCI  31
PRESCOTT       CLEAR     50  28  42 S6        30.09R
6HR MIN TEMP:  50; 6HR MAX TEMP:  60;

FLAGSTAFF      CLEAR     32  20  61 CALM      30.18R
6HR MIN TEMP:  31; 6HR MAX TEMP:  43;

PAYSON         CLEAR     52  23  32 CALM      30.13R
$$

AZZ009>014-017-291300-
NORTHEAST ARIZONA

CITY           SKY/WX    TMP DP  RH WIND       PRES   REMARKS
WINSLOW        CLEAR     46  23  40 E6        30.10R
6HR MIN TEMP:  44; 6HR MAX TEMP:  62;

SAINT JOHNS    CLEAR     45  22  40 SW5       30.14R
6HR MIN TEMP:  44; 6HR MAX TEMP:  57;

WINDOW ROCK    CLEAR     38  24  57 CALM      30.19R
6HR MIN TEMP:  35; 6HR MAX TEMP:  57;

SHOW LOW       CLEAR     43  18  36 CALM      30.19R
$$

AZZ023-291300-
GREATER PHOENIX AREA

CITY           SKY/WX    TMP DP  RH WIND       PRES   REMARKS
PHOENIX        CLEAR     72  37  28 CALM      29.89R
6HR MIN TEMP:  72; 6HR MAX TEMP:  83;

BUCKEYE        CLEAR     63  32  31 CALM      29.91R
LUKE AFB       CLEAR     70  37  29 CALM      29.89R
6HR MIN TEMP:  69; 6HR MAX TEMP:  82;

DEER VALLEY    CLEAR     69  31  24 CALM      29.91R
6HR MIN TEMP:  67; 6HR MAX TEMP:  81;

SCOTTSDALE     CLEAR     69  39  33 W3        29.92R
6HR MIN TEMP:  69; 6HR MAX TEMP:  82;

MESA-GATEWAY   CLEAR     64  37  36 E6        29.92R
$$

AZZ027-028-291300-
SOUTHWEST MARICOPA COUNTY AND PINAL COUNTY

CITY           SKY/WX    TMP DP  RH WIND       PRES   REMARKS
CASA GRANDE    CLEAR     63  28  27 CALM      29.93R
6HR MIN TEMP:  61; 6HR MAX TEMP:  79;

GILA BEND      FAIR      65  30  26 S9        29.87S
6HR MIN TEMP:  64; 6HR MAX TEMP:  79;

$$

AZZ503-504-507>509-291300-
SOUTHEAST ARIZONA

CITY           SKY/WX    TMP DP  RH WIND       PRES   REMARKS
TUCSON         CLEAR     62  22  21 SE9       30.01R
6HR MIN TEMP:  61; 6HR MAX TEMP:  76;

DAVIS-MONTHAN  CLEAR     59  14  17 SE7       29.99R
6HR MIN TEMP:  59; 6HR MAX TEMP:  73;

NOGALES        CLEAR     52  24  33 NE5       30.05R
6HR MIN TEMP:  51; 6HR MAX TEMP:  68;

SIERRA VISTA   CLEAR     56  12  17 CALM      30.10R
6HR MIN TEMP:  55; 6HR MAX TEMP:  68;

DOUGLAS        CLEAR     55  10  16 E6        30.08R
6HR MIN TEMP:  47; 6HR MAX TEMP:  62;

SAFFORD        CLEAR     55  12  18 E3        30.01R
6HR MIN TEMP:  55; 6HR MAX TEMP:  78;

$$

AZZ020-021-025-026-031-291300-
SOUTHWEST ARIZONA

CITY           SKY/WX    TMP DP  RH WIND       PRES   REMARKS
YUMA           CLEAR     68  41  37 N3        29.82R
6HR MIN TEMP:  68; 6HR MAX TEMP:  77;

$$

CAZ031-033-041-043-047-048-061-291300-
SOUTHERN CALIFORNIA

CITY           SKY/WX    TMP DP  RH WIND       PRES   REMARKS
DOWNTOWN L.A.  CLOUDY    61  54  77 CALM      29.96R
6HR MIN TEMP:  61; 6HR MAX TEMP:  62;

L.A. AIRPORT   CLOUDY    60  54  80 W6        29.97R
6HR MIN TEMP:  59; 6HR MAX TEMP:  60;

SAN DIEGO      DRIZZLE   60  56  86 NW3       29.98S
6HR MIN TEMP:  60; 6HR MAX TEMP:  63; 6HR PCP: TRACE;

BURBANK        CLOUDY    58  54  86 CALM      29.96R
6HR MIN TEMP:  58; 6HR MAX TEMP:  58;

ONTARIO        CLOUDY    60  53  77 W6        29.95S
6HR MIN TEMP:  59; 6HR MAX TEMP:  61;

RIVERSIDE      CLOUDY    60  53  77 W5        29.96R
6HR MIN TEMP:  60; 6HR MAX TEMP:  61;

PALM SPRINGS   CLEAR     67  53  61 SE5       29.86R
6HR MIN TEMP:  67; 6HR MAX TEMP:  76;

EL CENTRO NAS  CLEAR     69  49  48 SW5       29.83R
6HR MIN TEMP:  65; 6HR MAX TEMP:  77;

IMPERIAL       CLEAR     71  44  37 E3        29.81R
6HR MIN TEMP:  68; 6HR MAX TEMP:  77;

BLYTHE         CLEAR     70  39  32 S7        29.84R
6HR MIN TEMP:  68; 6HR MAX TEMP:  80;

NEEDLES        CLEAR     75  31  19 SW5       29.84R
6HR MIN TEMP:  74; 6HR MAX TEMP:  85;

$$

NVZ020-UTZ003-291300-
SOUTHERN NEVADA-UTAH

CITY           SKY/WX    TMP DP  RH WIND       PRES   REMARKS
LAS VEGAS      PTCLDY    73  27  18 SW3       29.84R
6HR MIN TEMP:  72; 6HR MAX TEMP:  80;

SALT LAKE CITY MOCLDY    57  41  55 E8        30.07R
6HR MIN TEMP:  57; 6HR MAX TEMP:  63;

$$

NMZ009-TXZ055-291300-
NEW MEXICO-WEST TEXAS

CITY           SKY/WX    TMP DP  RH WIND       PRES   REMARKS
ALBUQUERQUE    PTCLDY    56  25  30 N3        30.13R
6HR MIN TEMP:  56; 6HR MAX TEMP:  69;

EL PASO        MOCLDY    76   4   6 NW7       30.05S
6HR MIN TEMP:  66; 6HR MAX TEMP:  81;

$$


........................KEY........................
SKY/WX - SKY CONDITION/WEATHER
TMP    - TEMPERATURE IN FAHRENHEIT
DP     - DEW POINT IN FAHRENHEIT
RH     - RELATIVE HUMIDITY IN PERCENT
WIND   - DIRECTION AND SPEED IN MILES PER HOUR (MPH)
VRB    - VARIABLE WIND DIRECTION
PRES   - MEAN SEA LEVEL PRESSURE IN INCHES OF MERCURY
         F - FALLING PRESSURE   R - RISING PRESSURE
         S - STEADY PRESSURE
VSB    - VISIBILITY IN MILES
HX     - HEAT INDEX IN FAHRENHEIT
WCI    - WIND CHILL INDEX IN FAHRENHEIT
TC     - TEMPERATURE IN CELSIUS WHICH IS ALSO KNOWN AS
         TEMPERATURE IN CENTIGRADE
AFB    - AIR FORCE BASE
         LUKE AFB IS LUKE AIR FORCE BASE
         DAVIS-MONTHAN IS DAVIS-MONTHAN AIR FORCE BASE
NAS    - NAVAL AIR STATION
         EL CENTRO NAS IS EL CENTRO NAVAL AIR STATION
N/A    - NOT AVAILABLE






    US Dept of Commerce
    National Oceanic and Atmospheric Administration
    National Weather Service
    1325 East West Highway
    Silver Spring, MD 20910
    Page Author: NWS Internet Services Team
Disclaimer
Information Quality
Credits
Glossary
Privacy Policy
Freedom of Information Act (FOIA)
About Us
Career Opportunities